This is the latest recevied weather packets stored in our database for station/object KC3AWA. If no packets are shown the sender has not sent any weather packets the latest 1 day(s).
| Time | Temp. | Humidity | Pressure | Rain* | Wind** | Luminosity | Snow |
|---|---|---|---|---|---|---|---|
| 1778052120 | 10° C | 98% | 1007.2 hPa | 1.78 mm | 1.34 m/s, 16° | 0 W/m² | - |
| 1778051817 | 10° C | 98% | 1007.2 hPa | 1.78 mm | 0.45 m/s, 349° | 0 W/m² | - |
| 1778051515 | 10° C | 98% | 1007.2 hPa | 1.27 mm | 0.45 m/s, 2° | 0 W/m² | - |
| 1778051211 | 10° C | 98% | 1007.3 hPa | 1.27 mm | 0 m/s | 0 W/m² | - |
| 1778050908 | 10° C | 98% | 1007.5 hPa | 3.05 mm | 0 m/s | 0 W/m² | - |
| 1778050607 | 10.56° C | 98% | 1007.3 hPa | 3.05 mm | 0.45 m/s, 352° | 0 W/m² | - |
| 1778050303 | 10.56° C | 98% | 1007.9 hPa | 3.05 mm | 0 m/s | 0 W/m² | - |
| 1778050000 | 10.56° C | 98% | 1007.8 hPa | 1.78 mm | 0 m/s | 0 W/m² | - |
| 1778049695 | 10.56° C | 98% | 1007.7 hPa | 1.27 mm | 0 m/s | 0 W/m² | - |
| 1778049394 | 10.56° C | 98% | 1007.9 hPa | 1.27 mm | 0 m/s | 0 W/m² | - |
| 1778049090 | 10.56° C | 98% | 1007.9 hPa | 0 mm | 0 m/s | 0 W/m² | - |
| 1778048789 | 10.56° C | 98% | 1007.8 hPa | 1.78 mm | 0 m/s | 0 W/m² | - |
| 1778048486 | 10.56° C | 98% | 1008 hPa | 1.78 mm | 0 m/s | 0 W/m² | - |
| 1778048181 | 10.56° C | 98% | 1008.1 hPa | 0 mm | 0 m/s | 0 W/m² | - |
| 1778047880 | 10.56° C | 98% | 1008.1 hPa | 1.78 mm | 0.45 m/s, 347° | 0 W/m² | - |
| 1778047578 | 10.56° C | 98% | 1008.2 hPa | 1.78 mm | 0 m/s | 0 W/m² | - |
| 1778047274 | 10.56° C | 98% | 1008.2 hPa | 0 mm | 0 m/s | 0 W/m² | - |
| 1778046972 | 10.56° C | 98% | 1008.4 hPa | 1.27 mm | 0 m/s | 0 W/m² | - |
| 1778046668 | 10.56° C | 98% | 1008.3 hPa | 1.27 mm | 0 m/s | 0 W/m² | - |
| 1778046365 | 10.56° C | 98% | 1008.4 hPa | 1.78 mm | 0.45 m/s, 1° | 0 W/m² | - |
| 1778046061 | 10.56° C | 98% | 1008.3 hPa | 1.78 mm | 0.45 m/s, 6° | 0 W/m² | - |
| 1778045759 | 10.56° C | 98% | 1008.5 hPa | 1.27 mm | 0 m/s | 0 W/m² | - |
| 1778045457 | 10.56° C | 98% | 1008.6 hPa | 1.27 mm | 0 m/s | 0 W/m² | - |
| 1778045155 | 10.56° C | 98% | 1008.6 hPa | 1.78 mm | 0.45 m/s, 330° | 0 W/m² | - |
| 1778044853 | 10.56° C | 98% | 1008.9 hPa | 3.05 mm | 0.45 m/s, 355° | 0 W/m² | - |
* Rain latest hour (hover to see other rain measurements)
** Current wind speed in m/s (hover to see current wind gust speed)